Flag for U.S.A. Weather past 2 weeks in Jefferson City, Missouri, U.S.A.

63 °F


Feels Like: 63 °F
Forecast: 58 / 66 °F
Wind: 16 mph from South

Location: Jefferson City Memorial Airport

Current Time: Nov 26, 2015 at 8:55:49 AM

Latest Report: Nov 26, 2015 at 7:53 AM

Visibility: 10 mi

Pressure: 30.19 "Hg

Humidity: 73%

Dew point: 54 °F

Location of Jefferson CityLocation

Historic Weather in Jefferson City — Graph


Jefferson City temperature yesterday

Maximum temperature yesterday: 60 °F (at 11:53 AM)
Minimum temperature yesterday: 50 °F (at 12:53 AM)
Average temperature yesterday: 56 °F

Past Weeks' High & Low Weather Summary

High71 °F (Nov 11, 1:53 PM)97% (Nov 17, 1:53 AM)30.32 "Hg (Nov 17, 1:53 AM)
Low23 °F (Nov 22, 12:53 AM)18% (Nov 11, 6:53 PM)29.40 "Hg (Nov 11, 3:53 PM)
Average48 °F63%30.03 "Hg
* Reported Nov 11 6:53 AM — Nov 26 6:53 AM, Jefferson City, Weather by CustomWeather, © 2015

Note: Actual official high and low records may vary slightly from our data, if they occured in-between our weather recording intervals... More about our weather records


Jefferson City weather history for previous 24 hours

Time TempWeatherWind HumidityBarometerVisibility
6:53 AM
Thu, Nov 26
62 °FPassing clouds.14 mph78%30.18 "Hg10 mi
5:53 AM61 °FPartly cloudy.10 mph78%30.16 "Hg10 mi
4:53 AM60 °FOvercast.9 mph78%30.16 "Hg10 mi
3:53 AM60 °FPassing clouds.14 mph75%30.15 "Hg10 mi
2:53 AM60 °FPartly cloudy.13 mph75%30.15 "Hg10 mi
1:53 AM60 °FMostly cloudy.16 mph72%30.14 "Hg10 mi
12:53 AM59 °FMostly cloudy.13 mph72%30.14 "Hg10 mi
11:53 PM
Wed, Nov 25
57 °FPartly cloudy.12 mph72%30.14 "Hg10 mi
10:53 PM57 °FOvercast.12 mph67%30.15 "Hg10 mi
9:53 PM57 °FOvercast.15 mph64%30.15 "Hg10 mi
8:53 PM57 °FMostly cloudy.12 mph62%30.14 "Hg10 mi
7:53 PM58 °FOvercast.18 mph60%30.10 "Hg10 mi
6:53 PM59 °FMostly cloudy.14 mph58%30.09 "Hg10 mi
5:53 PM59 °FMostly cloudy.17 mph60%30.08 "Hg10 mi
4:53 PM59 °FOvercast.16 mph62%30.05 "Hg10 mi
3:53 PM60 °FOvercast.14 mph62%30.04 "Hg10 mi
2:53 PM59 °FOvercast.17 mph60%30.03 "Hg10 mi
1:53 PM59 °FMore clouds than sun.18 mph60%30.04 "Hg10 mi
12:53 PM59 °FMostly cloudy.15 mph60%30.06 "Hg10 mi
11:53 AM60 °FPartly sunny.17 mph56%30.07 "Hg10 mi
10:53 AM59 °FSunny.14 mph54%30.09 "Hg10 mi
9:53 AM56 °FSunny.15 mph58%30.10 "Hg10 mi
8:53 AM54 °FPassing clouds.14 mph55%30.11 "Hg10 mi
Weather by CustomWeather, © 2015

See weather overviewHow to use our weather pages